STARLINK-30286 (57647 NORAD) Tracking and Keplerian Element Data

This shows tracking and keplerian element data for the satellite.

Feedback or suggestion? Click here.




ElementValue
Catalog57647
NameSTARLINK-30286
Epoch Orbit2379
Epoch Day13.1200129
Epoch Year2024
RAAN48.4298
Inclination43.0043
Eccentricity6.02E-05
Argument of Perigee252.0535
Mean Anonmoly108.0242
Mean Motion15.02530176
Decay Rate-7.73E-06
L11 57647U 23122R 24013.12001290 -.00000773 00000+0 -42181-4 0 9992
L22 57647 43.0043 48.4298 0000602 252.0535 108.0242 15.02530176 23798



Live tracking and technical data element details for STARLINK-30286 (NORAD 57647). STARLINK-30286 can be tracked NOW for your location showing map with azimuth and elevation plus other details from your city location.







IsCatalogInMostPopularTable: catalog: 57647, numindb: 36
Update: records affected: 1



GetName: 57647 STARLINK-30286

Hit Count: updated at: Thu, 29 Feb 2024 10:59:26 GMT